This demonstration page uses our WeatherBlox Daily Observations layout. Learn more.

38.88101, -77.10428

Hourly Observations for March 18, 2020

Temp ( °F °C ) Dew Point ( °F °C ) Humidity (%) Winds ( mph kmh ) Pressure ( in mb ) Visibility ( mi km ) Precip ( " mm )
12:52 am 00:52 Mostly Clear 50 10 38 3.3 63 63 N 13 20 30.33 1027 10 16.0934 0 0
1:52 am 01:52 Mostly Clear 49 9.4 40 4.4 71 71 NNE 8 13 30.35 1028 10 16.0934 0 0
2:52 am 02:52 Mostly Clear 48 8.9 37 2.8 66 66 N 12 19 30.37 1028 10 16.0934 0 0
3:52 am 03:52 Mostly Clear 48 8.9 36 2.2 63 63 NNE 9 15 30.37 1029 10 16.0934 0 0
4:52 am 04:52 Partly Cloudy 47 8.3 34 1.1 61 61 NNE 14 22 30.4 1029 10 16.0934 0 0
5:52 am 05:52 Mostly Clear 46 7.8 34 1.1 63 63 NNE 12 19 30.41 1030 10 16.0934 0 0
6:52 am 06:52 Partly Cloudy 45 7.2 33 0.6 63 63 NNE 12 19 30.45 1031 10 16.0934 0 0
7:52 am 07:52 Partly Cloudy 45 7.2 34 1.1 66 66 NE 8 13 30.47 1032 10 16.0934 0 0
8:52 am 08:52 Partly Cloudy 47 8.3 33 0.6 59 59 NE 9 15 30.48 1032 10 16.0934 0 0
9:52 am 09:52 Partly Cloudy 49 9.4 32 0 52 52 ENE 9 15 30.51 1033 10 16.0934 0 0
10:52 am 10:52 Partly Cloudy 52 11.1 33 0.6 49 49 E 10 17 30.5 1033 10 16.0934 0 0
12:52 pm 12:52 Cloudy 55 12.8 32 0 42 42 ESE 5 7 30.5 1033 10 16.0934 0 0
1:52 pm 13:52 Cloudy 55 12.8 33 0.6 44 44 S 6 9 30.47 1032 10 16.0934 0 0
2:52 pm 14:52 Cloudy 57 13.9 35 1.7 44 44 SSE 8 13 30.43 1030 10 16.0934 0 0
3:52 pm 15:52 Cloudy 57 13.9 36 2.2 45 45 S 8 13 30.4 1030 10 16.0934 0 0
4:52 pm 16:52 Cloudy 57 13.9 37 2.8 47 47 S 6 9 30.39 1029 10 16.0934 0 0
5:52 pm 17:52 Cloudy 57 13.9 38 3.3 49 49 S 10 17 30.36 1028 10 16.0934 0 0
6:52 pm 18:52 Cloudy 55 12.8 39 3.9 55 55 SSE 10 17 30.37 1029 10 16.0934 0 0
7:52 pm 19:52 Cloudy with Light Rain 54 12.2 40 4.4 59 59 S 9 15 30.39 1029 10 16.0934 0.001 0.001
8:18 pm 20:18 Cloudy with Light Rain 52 11.1 43 6.1 72 72 SSE 8 13 30.39 1029 6 9.65604 0.01 0.254
8:21 pm 20:21 Cloudy with Light Rain 52 11.1 43 6.1 72 72 SSE 10 17 30.4 1029 7 11.26538 0.01 0.254
8:52 pm 20:52 Cloudy with Light Rain 52 11.1 43 6.1 72 72 SSE 13 20 30.39 1029 10 16.0934 0.01 0.254
9:52 pm 21:52 Cloudy 52 11.1 42 5.6 69 69 SSE 9 15 30.36 1028 10 16.0934 0.001 0.001
10:52 pm 22:52 Cloudy 52 11.1 43 6.1 72 72 S 12 19 30.35 1028 10 16.0934 0.001 0.001
11:52 pm 23:52 Cloudy with Light Rain 50 10 45 7.2 83 83 SSE 7 11 30.32 1027 9 14.48406 0.01 0.254

Powered by AerisWeather